Regional Weather Roundup
Issued by NWS State College, PA

Current Version | Previous Version | Text Only | Print | Product List | Glossary On
Versions: 1 2 3 4 5 6 7 8 9 10 11 12 13 14 15 16 17 18 19 20 21 22 23 24 25 26 27 28 29 30 31 32 33 34 35 36 37 38 39 40 41 42 43 44 45 46 47 48 49 50
000
ASUS41 KCTP 281110
RWRCTP

REGIONAL WEATHER ROUNDUP
NATIONAL WEATHER SERVICE STATE COLLEGE PA
700 AM EDT WED OCT 28 2020

Note: "fair" indicates few or no clouds below 12,000 feet with no
significant weather and/or obstructions to visibility.

* = STATION THAT DOES NOT REPORT PRECIPITATION /E.G. RAIN...SNOW...ETC/
    THUNDER OR FOG.

PAZ002>004-007>009-013>016-020>023-029>032-281200-
WESTERN PENNSYLVANIA

CITY           SKY/WX    TMP DP  RH WIND       PRES   REMARKS
ERIE           CLOUDY    46  43  89 SW5       30.04R FOG
MEADVILLE      CLOUDY    42  41  96 SW6       30.03S
FRANKLIN       LGT RAIN  43  43 100 W7        30.04S
NEW CASTLE     LGT RAIN  46  45  96 CALM      30.05F FOG
BEAVER COUNTY  CLOUDY    49  47  91 W5        30.05S
BUTLER         CLOUDY    47  47 100 W6        30.05S
PITTSBURGH INT LGT RAIN  49  48  97 SW7       30.04F
PITTSBURGH     CLOUDY    50  49  96 SW6       30.04F FOG
INDIANA*       CLOUDY    50  50 100 W7        30.07F FOG
LATROBE        LGT RAIN  50  50 100 SW9       30.06S
WASHINGTON CO* MIX PCPN N/A N/A N/A SW5       30.08F
$$

PAZ004>006-010>012-017>019-024>028-033>037-041-042-045-046-049>053-281200-
CENTRAL PENNSYLVANIA

CITY           SKY/WX    TMP DP  RH WIND       PRES   REMARKS
BRADFORD       CLOUDY    44  40  85 VRB5      30.00F FOG
ST MARYS       LGT SNOW  45  45 100 W3        30.04F
DUBOIS         CLOUDY    46  44  93 SW7       30.00F FOG
CLEARFIELD     LGT RAIN  47  46  97 SW3       30.02F VSB 3/4
JOHNSTOWN      LGT RAIN  51  49  92 W10       30.02F FOG
SOMERSET       LGT RAIN  50  50 100 W12G22    30.04F
ALTOONA        CLOUDY    51  48  89 CALM      30.02F FOG
STATE COLLEGE  CLOUDY    48  48 100 CALM      30.03S FOG
REEDSVILLE     CLOUDY    50  50 100 CALM      30.03S FOG
WELLSBORO      CLOUDY    43  43 100 CALM      30.00F FOG
WILLIAMSPORT   CLOUDY    49  46  90 CALM      30.02F
SELINSGROVE    CLOUDY    49  48  97 CALM      30.04S
FT INDIANTOWN  DRIZZLE   50  50 100 CALM      30.03F FOG
CAPITAL CITY   LGT RAIN  53  49  86 CALM      30.04F FOG
HARRISBURG     LGT RAIN  52  50  93 CALM      30.03F FOG
YORK           CLOUDY    51  49  92 SE3       30.02F FOG
$$

PAZ038>040-043-044-047-048-054-055-060>062-067>071-281200-
EASTERN PENNSYLVANIA

CITY           SKY/WX    TMP DP  RH WIND       PRES   REMARKS
TOWANDA        SUNNY     46  46 100 CALM      30.04F
SCRANTON       LGT RAIN  48  46  93 NE6       30.03F FOG
MOUNT POCONO   LGT RAIN  42  42 100 E3        30.01F FOG
HAZLETON       DRIZZLE   46  45  93 CALM      30.04F
LEHIGHTON      LGT RAIN  46  46 100 CALM      30.05S
ALLENTOWN      LGT RAIN  49  47  93 NE5       30.04F
QN CITY/ALNTWN CLOUDY    50  48  93 CALM      30.05S
QUAKERTOWN*      N/A     50  50 100 CALM      30.04S FOG
PERKASIE*      CLOUDY    48  48 100 E3        30.05F FOG
DOYLESTOWN     CLOUDY    52  49  89 CALM      30.03F
READING        LGT RAIN  52  52 100 CALM      30.03F FOG
LANCASTER      CLOUDY    53  51  93 CALM      30.03F FOG
COATESVILLE    CLOUDY    54  54 100 CALM      30.04F FOG
WEST CHESTER   CLOUDY    55  52  88 CALM      30.05S
POTTSTOWN      CLOUDY    50  50 100 CALM      30.05F FOG
BLUE BELL      LGT RAIN  52  51  97 CALM      30.05F
NORTH PHILA    CLOUDY    57  51  80 NE3       30.05F
PHILADELPHIA   CLOUDY    59  55  87 S6        30.04F
$$




USA.gov is the U.S. government's official web portal to all federal, state and local government web resources and services.